Location: Oberwangen
(47.4286°N, 8.9679°E)
Time: 15:01:55
(UTC+00:00)

Cosmos 2016 Rocket - Pass Details

Date: 20 June 2021
Orbit: 947 x 1000 km, 83.0° (Epoch: 02 August)

Event Time Altitude Azimuth Distance (km) Brightness Sun altitude
Rises 20:11:46 0° 354° (N) 3,630 7.9 -6.8°
Reaches altitude 10° 20:14:22 10° 0° (N) 2,681 7.1 -7.1°
Maximum altitude 20:20:17 50° 75° (ENE) 1,201 4.3 -7.8°
Drops below altitude 10° 20:26:12 10° 150° (SSE) 2,679 5.7 -8.4°
Enters shadow 20:26:19 10° 151° (SSE) 2,721 5.7 -8.4°
